Flag for Egypt Weather past 2 weeks in Port Said, Egypt

Now
68 °F

Clear.


Feels Like: 68 °F
Forecast: 65 / 70 °F
Wind: 25 mph from Northeast

Location: Port Said Airport


UV Index: 7 (High)

Visibility: 10 mi


Pressure: 29.95 "Hg

Humidity: 88%

Dew point: 64 °F

Location of Port SaidLocation

Historic Weather in Port Said

°F

Port Said temperature yesterday

Maximum temperature yesterday: 91 °F (at 2:00 PM)
Minimum temperature yesterday: 66 °F (at 1:00 AM)
Average temperature yesterday: 75 °F

Past Weeks' High & Low Weather Summary

 TemperatureHumidityPressure
High91 °F (Apr 18, 2:00 PM)100% (Apr 4, 10:00 PM)30.12 "Hg (Apr 4, 10:00 PM)
Low55 °F (Apr 11, 1:00 AM)21% (Apr 18, 2:00 PM)29.77 "Hg (Apr 15, 5:00 AM)
Average68 °F82%29.95 "Hg
* Reported Apr 4 8:00 PM — Apr 19 8:00 PM, Port Said, Weather by CustomWeather, © 2014

Note: Actual official high and low records may vary slightly from our data, if they occured in-between our weather recording intervals... More about our weather records

Advertising

Historic Weather Conditions — Data for Previous 24 hours

 ConditionsComfort  
Time TempWeatherWind HumidityBarometerVisibility
8:00 PM
Apr 19
68 °FClear.24 mph88%29.95 "Hg10 mi
7:00 PM68 °FClear.26 mph88%29.95 "Hg10 mi
6:00 PM68 °FSunny.23 mph88%29.98 "Hg10 mi
5:00 PM68 °FSunny.21 mph88%29.98 "Hg10 mi
4:00 PM70 °FSunny.18 mph88%29.95 "Hg10 mi
3:00 PM72 °FSunny.21 mph83%29.92 "Hg10 mi
2:00 PM75 °FSunny.14 mph74%29.89 "Hg10 mi
1:00 PM72 °FScattered clouds.16 mph83%29.89 "HgN/A
12:00 PM73 °FScattered clouds.15 mph78%29.92 "HgN/A
11:00 AM70 °FSunny.18 mph88%29.92 "Hg10 mi
10:00 AM70 °FPartly sunny.17 mph88%29.95 "HgN/A
9:00 AM70 °FScattered clouds.16 mph88%29.98 "HgN/A
8:00 AM70 °FScattered clouds.9 mph83%29.92 "HgN/A
7:00 AM70 °FScattered clouds.9 mph83%29.89 "HgN/A
6:00 AM68 °FSunny.9 mph83%29.89 "Hg10 mi
5:00 AM68 °FClear.12 mph83%29.86 "Hg10 mi
4:00 AM68 °FClear.15 mph88%29.89 "Hg10 mi
3:00 AM70 °FClear.18 mph78%29.86 "Hg10 mi
2:00 AM70 °FClear.21 mph83%29.86 "Hg10 mi
1:00 AM70 °FClear.18 mph83%29.86 "Hg10 mi
12:00 AM70 °FClear.21 mph83%29.92 "Hg10 mi
11:00 PM
Apr 18
70 °FClear.22 mph83%29.89 "Hg10 mi
10:00 PM72 °FClear.21 mph73%29.89 "Hg10 mi
9:00 PM72 °FClear.18 mph78%29.86 "Hg10 mi
Weather by CustomWeather, © 2014

See weather overview